Погода в Черняховске

Погода в Черняховске : погода сейчас, прогноз погоды и архив. Всё, что Вы хотите узнать о погоде в Черняховске!

Хотите узнать прогноз погоды в Черняховске? Тогда Вам сюда: Погода в Черняховске

Поиск расширенной информации на нашем сайте:

Другие новости

Новости СМИ2

Главная страница сайта

Новости сайта

02.10.2013

Напоминаем, что на нашем новом сайте вы можете получить высокодетализированные прогнозы погоды по пунктам России, СНГ и мира (включающие важные для авиации метеовеличины, такие как направление и скорость ветра, видимость, явления погоды, количество и форма облачности, нижняя и верхняя граница облачности), а также ознакомиться с разнообразными материалами по авиационной метеорологии и подборкой полезных ссылок на эту тему.

Сайт Метеоцентр.Азия посвящён разработке технологий оптимизации авиаметеорологического обслуживания, включая проектирование и перспективное создание нескольких автоматизированных авиаметеорологических систем:
- система выпуска высокодетальных прогностических карт явлений погоды для нижнего воздушного пространства по России и ближнему зарубежью;
- система верификации прогнозов TAF (выпускаемых синоптиками официальных АМСГ РФ и ближнего зарубежья) и AUTOTAF (выпускаемых сайтом Метеоцентр.Азия) - выявление ошибок, онлайн-сопоставление с фактической погодой METAR, автоматическое внесение коррективов в прогнозы при резком отклонении фактической погоды от прогноза, подсчёт оправдываемости прогнозов по элементам и в целом;
- система обработки, анализа и отображения авиаметеорологической информации для применения провайдерами метеорологической информации.

Рекомендуем: курьер дешево по москве

Погода в Черняховске - сегодня

Время (UTC), дата Ветер
(°,м/с) 
Видим.   Явления Облачность Т
(°С)
Тd
(°С)
f(%) Тe
(°С)
Pmin
(гПа)
dP
(гПа)
Po
(мм)
O2
(г/м3)
Тmin Tmax R s Состояние
почвы
06 17.02.17 220 (ЮЗ) 2-4{06}  2000 м  дымка  10/10 600 м 
[Sc]
+2.7 +0.9 88 +2  1017.5  -0.8  760  303  +1.2         
09 17.02.17 220 (ЮЗ) 3-5{05}  2000 м  дымка  10/10 300 м 
[Sc]
+3.1 +1.4 89 +2  1017.5  0.1  760  303           
12 17.02.17 280 (З) 3-4{06}  4000 м  дымка  10/10 300 м 
[Sc]
+4.3 +2.2 86 +3  1016.6  -0.9  760  301           
15 17.02.17 280 (З) 3-5{07}  4000 м  дымка  10/10 300 м 
[St]
+3.2 +2 92 +2  1016.6  -0.1  759  302           
18 17.02.17 270 (З) 2-4{05}  4000 м  слаб. морось  10/10 300 м 
[St]
+2.8 +1.4 90 +2  1017.3  0.7  760  303    +4.5  0.0     
21 17.02.17 260 (З) 2-4{05}  4000 м  дымка{морось}  10/10 300 м 
[Sc]
+2.5 +1.4 92 +2  1017.9  0.7  761  303           
00 18.02.17 250 (З) 2-5{05}  2000 м  в посл. час дождь{морось}  10/10 300 м 
[Sc]
+2.4 +2.1 98 +2  1018  761  303           
03 18.02.17 270 (З) 2-4{05}  1000 м  в посл. час морось  10/10 300 м 
[St]
+2.2 +2.1 99 +2  1017.9  761  304  +2.2    0.6     
06 18.02.17 270 (З) 2-3{04}  0200 м  туман{морось}  ?/?  
+2.4 +2.3 99 +2  1018.9  0.9  761  304  +2.2    0.6     
09 18.02.17 310 (СЗ) 3-5{05}  0500 м  слаб. морось{туман}  ?/?  
+2.7 +2.6 99 +1  1020.4  1.5  762  304           
12 18.02.17 290 (З) 2-4{05}  2000 м  слаб. морось{туман}  10/10 300 м 
[St]
+2.9 +2.8 99 +2  1020.9  0.5  763  304           
15 18.02.17 280 (З) 2-5{05}  4000 м  слаб. морось  10/10 300 м 
[St]
+2 +1.8 99 +1  1021.4  0.5  763  305      0.4     
18 18.02.17 270 (З) 2-3{05}  2000 м  слаб. морось  10/10 300 м 
[St]
+1.6 +1.4 99 +1  1022.1  0.7  764  306    +3.1  0.4     
21 18.02.17 210 (ЮЗ) 2-4{04}  2000 м  дымка{морось}  10/10 300 м 
[Sc]
+1.8 +1.2 96 +1  1021.6  -0.5  763  305           
00 19.02.17 230 (ЮЗ) 3-7{07}  2000 м  дымка{морось}  10/10 300 м 
[Sc]
+2.5 +0.7 88 +1  1020.7  -0.8  763  304           
03 19.02.17 230 (ЮЗ) 3-6{08}  2000 м  дымка  10/10 300 м 
[Sc]
+2.1 +0.8 91 +1  1019.6  -1.1  762  304  +1.6         
06 19.02.17 230 (ЮЗ) 3-5{07}  2000 м  слаб. дождь{снег}  10/10 300 м 
[Frnb]
+0.8 +0.3 96 -1  1018.7  -0.9  761  306  +0.8    0.6     
09 19.02.17 220 (ЮЗ) 5-8{08}  10 км  {дождь}  10/10 300 м 
[Sc]
+2 +0.2 88 -1  1017.5  -1.2  760  304           
12 19.02.17 220 (ЮЗ) 4-7{09}  10 км  {дождь}  10/10 300 м 
[Sc]
+3 +0.8 85 +1  1015.5  -1.9  759  302           
15 19.02.17 210 (ЮЗ) 4-7{10}  4000 м  слаб. ливневой дождь  10/10 300 м кучево-дожд. 
[Cb cap]
+2.9 +1.6 91 +1  1014.2  -1.3  758  302         
18 19.02.17 210 (ЮЗ) 3-6{08}  10 км  {ливн. осадки}  10/10 300 м 
[Sc]
+2.8 +1.3 90 +1  1013.5  -0.7  757  302    +3.3     
21 19.02.17 220 (ЮЗ) 4-8{08}  4000 м  дымка  10/10 300 м 
[Sc]
+3.4 +1.3 86 +1  1013.2  -0.3  757  301           
00 20.02.17 220 (ЮЗ) 4-8{09}  4000 м  дымка  10/10 300 м 
[Sc]
+3.4 +1.2 85 +1  1011.9  -1.3  756  301           
03 20.02.17 220 (ЮЗ) 4-7{08}  4000 м  дымка  10/10 300 м 
[Sc]
+3.2 +1.7 90 +1  1010.8  -1.1  755  301  +2.6       
06 20.02.17 220 (ЮЗ) 6-9{09}  4000 м  слаб. морось  10/10 300 м 
[St]
+3.4 +2 91 +1  1009.3  -1.5  754  300  +2.8    0.0     
Время (UTC), дата Ветер
(°,м/с) 
Видим.   Явления Облачность Т
(°С)
Тd
(°С)
f(%) Тe
(°С)
Pmin
(гПа)
dP
(гПа)
Po
(мм)
O2
(г/м3)
Тmin Tmax R s Состояние
почвы

Для получения пояснительной информации подведите курсор к названию столбца.

ПОГОДА в Черняховске - архив

Всё, что Вы хотите узнать о погоде в Черняховске - удобно и подробно!

Выберите нужную дату (начиная с 1 января 2015* года) и нажмите кнопку "Найти".
Будут отображены архивные сводки погоды по пункту Черняховск, начиная с указанной даты.


Отображать данные в формате CSV (для использования в таблицах Excel)


Внимание! Наш архив погоды предназначен исключительно для личного некоммерческого использования в познавательных целях. Если Вам необходимы официальные справки о состоянии погоды (для производственных, юридических, коммерческих и т.п. целей), обращайтесь в органы Росгидромета.

*Примечание: данная дата относится к архиву по метеостанциям СССР (Россия, СНГ, Балтия).
Архив по метеостанциям Зарубежной Европы и Азии (кроме Китая) хранится 10 дней, по другим регионам земного шара (Китай, Африка, Америка, Австралия, Океания) - 1 день.

Черняховск - район местоположения метеостанции


Название, широта, долгота, высота метеостанции:
Черняховск 54.8°ш. 21.7°д. 25 м над ур. моря [Российская Федерация]

Дополнительная информация

В oтличие oт бoльшинства пoгoдных сайтoв мы публикуем пoдрoбную метеoинфoрмацию в детальнoм прoфессиoнальнoм фoрмате.

Характеристики температуры и влажнoсти вoздуха измеряются на высoте 2 м в тени вдали oт зданий и деревьев.
Скoрoсть ветра измеряется на высoте 10 м (на урoвне рoста челoвека скoрoсть ветра ниже в 1.5-2 раза). Если метеoстанция нахoдится в гoрoде или в лесу, тo скoрoсть ветра занижена на 2-4 м/с пo сравнению с oткрытым местoм. Скoрoсть ветра над акватoриями крупных рек и oзёр, а также на вершинах хoлмoв на 2-5 м/с выше, чем в oбычных услoвиях.
Атмoсфернoе давление в разных тoчках местнoсти мoжет значительнo oтличаться oт давления на метеoстанции, в зависимoсти oт услoвий рельефа (при пoдъёме на 10 м давление пoнижается примернo на 1 мм рт.ст.).